{"data":{"norad_id":44907,"epoch":"2026-09-20T06:01:19.293600Z","epoch_age_seconds":83083,"freshness":"FRESH","line1":"1 44907U 19096C   26263.25091775  .00014452  00000+0  10412+0 0  9996","line2":"2 44907  82.5235  25.0718 0010840  15.3451 344.7955 12.42899521305442","mean_motion":12.42899521,"eccentricity":0.001084,"inclination_deg":82.5235,"raan_deg":25.0718,"arg_perigee_deg":15.3451,"mean_anomaly_deg":344.7955,"bstar":0.10412,"rev_number":30544,"period_min":115.85811850997,"perigee_km":1485.8018964771,"apogee_km":1502.8694171971,"semimajor_km":7872.4726568371,"source":"CELESTRAK","updated_at":"2026-09-20T09:00:14.573460Z"}}